[[{"header":{"parameterUnit":"m.s-1","parameterCategory":1,"la1":30.2992,"la2":30.254,"lo1":-89.0895,"lo2":-89.0443,"dy":0.0025,"dx":0.0025,"nx":19,"ny":19,"refTime":"2026-04-19T03:00:00:Z","depth":0,"parameterNumber":2,"parameterNumberName":"U-component_of_WINDS"},"data":[0,0,0,-3.1749,-3.175,-3.1791,-3.1791,-3.1855,-3.1856,0,0,0,0,0,0,0,0,0,0,0,-3.1745,-3.1746,-3.1749,-3.1751,-3.1791,-3.1791,-3.1855,-3.1856,0,0,0,0,0,0,0,0,0,0,0,-3.1745,-3.1746,-3.1747,-3.1751,-3.1791,-3.1791,-3.1855,-3.182,0,0,0,0,0,0,0,0,0,0,-3.1778,-3.1783,-3.1746,-3.1747,-3.1751,-3.1791,-3.1791,-3.1818,-3.1822,-3.1842,0,-3.1863,0,-3.1861,-3.1861,-3.1861,0,0,0,-3.1744,-3.1779,-3.1783,-3.1747,-3.1751,-3.1791,-3.1771,-3.182,-3.1825,-3.1848,-3.1864,-3.1866,-3.1862,-3.1861,-3.1862,-3.2001,-3.2002,0,0,-3.1742,-3.1757,-3.178,-3.1786,-3.1782,-3.177,-3.1772,-3.1823,-3.1841,-3.1864,-3.1867,-3.1863,-3.1862,-3.1863,-3.2,-3.2001,0,0,0,-3.174,-3.1756,-3.1758,-3.1784,-3.1791,-3.1771,-3.1774,-3.1838,-3.1838,-3.1868,-3.1863,-3.1862,-3.1863,-3.1999,-3.2001,-3.2062,0,0,0,-3.1738,-3.1754,-3.1757,-3.1767,-3.179,-3.1815,-3.1789,-3.1834,-3.184,-3.1863,-3.1862,-3.1864,-3.1998,-3.2,-3.2058,-3.2089,0,0,0,-3.174,-3.1754,-3.1763,-3.1767,-3.1785,-3.1814,-3.1816,-3.1835,-3.1838,-3.1861,-3.1864,-3.1997,-3.1999,-3.2055,-3.2083,-3.2131,0,0,0,-3.1746,-3.1817,-3.1764,-3.1841,-3.1785,-3.1852,-3.1816,-3.1864,-3.1892,-3.1863,-3.1998,-3.2,-3.2054,-3.208,-3.2127,-3.2175,-3.2195,0,0,-3.1843,-3.1829,-3.1873,-3.1827,-3.1907,-3.1844,-3.1933,-3.1944,-3.1932,-3.1979,-3.1982,-3.206,-3.2083,-3.213,-3.2305,-3.2322,0,0,0,-3.1909,-3.1941,-3.1959,-3.1986,-3.1997,-3.2008,-3.2004,-3.2008,-3.2047,-3.1959,-3.2088,-3.2102,-3.2129,-3.2151,-3.2165,-3.2188,-3.2011,-3.2011,-3.201,-3.2069,-3.205,-3.2122,-3.2109,-3.2136,-3.2131,-3.2151,-3.2155,-3.2128,-3.2159,-3.2173,-3.2282,-3.2308,-3.2318,-3.2342,-3.2196,-3.2196,-3.2196,-3.2196,-3.221,-3.2253,-3.2216,-3.2273,-3.2253,-3.23,-3.2297,-3.2277,-3.2318,-3.2269,-3.2292,-3.2242,-3.2337,-3.2357,-3.2201,-3.22,-3.2199,-3.2199,-3.2199,-3.2314,-3.2331,-3.2335,-3.2373,-3.2404,-3.2387,-3.2429,-3.2408,-3.2389,-3.2412,-3.2425,-3.2424,-3.2422,-3.242,-3.242,-3.242,-3.2421,-3.2421,-3.2421,-3.2421,-3.2423,-3.246,-3.2477,-3.2492,-3.2509,-3.2505,-3.2519,-3.2529,-3.2511,-3.2511,-3.2482,-3.235,-3.2317,-3.2427,-3.2426,-3.2425,-3.2425,-3.2424,-3.2573,-3.2536,-3.2594,-3.2609,-3.2627,-3.266,-3.2633,-3.2664,-3.2672,-3.2693,-3.2658,-3.2563,-3.2547,-3.2536,-3.2509,-3.2662,-3.2662,-3.2662,-3.2662,-3.2662,-3.2651,-3.2707,-3.2732,-3.2755,-3.2737,-3.2803,-3.28,-3.2791,-3.2795,-3.277,-3.2732,-3.2721,-3.2711,-3.2696,-3.2671,-3.2861,-3.2861,-3.2862,-3.2755,-3.2746,-3.2807,-3.2798,-3.2811,-3.2822,-3.2884,-3.2915,-3.2896,-3.2869,-3.2798,-3.279,-3.2729,-3.271,-3.2683,-3.266,-3.2613,0,0]},{"header":{"parameterUnit":"m.s-1","parameterCategory":1,"la1":30.2992,"la2":30.254,"lo1":-89.0895,"lo2":-89.0443,"dy":0.0025,"dx":0.0025,"nx":19,"ny":19,"refTime":"2026-04-19T03:00:00:Z","depth":0,"parameterNumber":3,"parameterNumberName":"V-component_of_WINDS"},"data":[0,0,0,-5.9294,-5.9296,-5.9383,-5.9383,-5.9501,-5.9502,0,0,0,0,0,0,0,0,0,0,0,-5.9275,-5.9276,-5.9294,-5.9296,-5.9383,-5.9383,-5.9501,-5.9502,0,0,0,0,0,0,0,0,0,0,0,-5.9274,-5.9276,-5.9277,-5.9297,-5.9383,-5.9383,-5.95,-5.9432,0,0,0,0,0,0,0,0,0,0,-5.9346,-5.9336,-5.9275,-5.9277,-5.9297,-5.9383,-5.9383,-5.9429,-5.9436,-5.9465,0,-5.9495,0,-5.9501,-5.9511,-5.9511,0,0,0,-5.9291,-5.9329,-5.9347,-5.9277,-5.9298,-5.9383,-5.9342,-5.9433,-5.9442,-5.9476,-5.9497,-5.9501,-5.9503,-5.9511,-5.9512,-5.9705,-5.9706,0,0,-5.9286,-5.9293,-5.9341,-5.9353,-5.9343,-5.934,-5.9345,-5.9438,-5.946,-5.9497,-5.9503,-5.9505,-5.9512,-5.9513,-5.9704,-5.9705,0,0,0,-5.9276,-5.929,-5.9306,-5.9349,-5.9364,-5.9342,-5.9348,-5.9456,-5.9461,-5.9505,-5.9506,-5.9513,-5.9515,-5.9703,-5.9705,-5.9772,0,0,0,-5.9273,-5.9284,-5.9304,-5.9309,-5.9362,-5.9412,-5.9365,-5.9454,-5.9465,-5.9506,-5.9513,-5.9516,-5.9701,-5.9704,-5.9767,-5.9802,0,0,0,-5.9267,-5.9283,-5.9299,-5.9309,-5.9347,-5.941,-5.942,-5.9456,-5.9466,-5.9511,-5.9516,-5.9701,-5.9703,-5.9763,-5.9795,-5.9857,0,0,0,-5.9262,-5.9355,-5.93,-5.9404,-5.9347,-5.9451,-5.9419,-5.9496,-5.9542,-5.9514,-5.9702,-5.9704,-5.9762,-5.9791,-5.9852,-5.9911,-5.9936,0,0,-5.9383,-5.937,-5.943,-5.9384,-5.9501,-5.9437,-5.9563,-5.9597,-5.9593,-5.9667,-5.9672,-5.9769,-5.9795,-5.9856,-6.007,-6.009,0,0,0,-5.9471,-5.9515,-5.9544,-5.9591,-5.9621,-5.965,-5.9664,-5.9677,-5.974,-5.9634,-5.9806,-5.9821,-5.9857,-5.9885,-5.9902,-5.9932,-5.9717,-5.9717,-5.9717,-5.9653,-5.9645,-5.9745,-5.9748,-5.9793,-5.9809,-5.9844,-5.9863,-5.984,-5.9881,-5.9903,-6.0035,-6.0067,-6.008,-6.0112,-5.9932,-5.9932,-5.9933,-5.9933,-5.9831,-5.9893,-5.9861,-5.9948,-5.9938,-6.0009,-6.0027,-6.0008,-6.0072,-6.0016,-6.0047,-5.9989,-6.0102,-6.013,-5.9938,-5.9937,-5.9936,-5.9936,-5.9935,-5.9951,-5.9979,-5.9995,-6.0062,-6.0115,-6.0113,-6.0177,-6.0164,-6.0153,-6.0183,-6.0206,-6.0205,-6.0204,-6.0195,-6.0195,-6.0196,-6.0196,-6.0197,-6.0197,-6.007,-6.0085,-6.0142,-6.0183,-6.0212,-6.0249,-6.0265,-6.0292,-6.0319,-6.0305,-6.0305,-6.0278,-6.0115,-6.0075,-6.0204,-6.0203,-6.0202,-6.0201,-6.0201,-6.0256,-6.0212,-6.03,-6.033,-6.0377,-6.0431,-6.0414,-6.0471,-6.0491,-6.0524,-6.049,-6.0371,-6.0355,-6.0342,-6.0309,-6.0491,-6.0491,-6.0491,-6.0491,-6.0358,-6.035,-6.0438,-6.0486,-6.0531,-6.0526,-6.0625,-6.0638,-6.0644,-6.0656,-6.0627,-6.0582,-6.0569,-6.0561,-6.0543,-6.0512,-6.0741,-6.0742,-6.0742,-6.0473,-6.0468,-6.0556,-6.0565,-6.0601,-6.0632,-6.0725,-6.0779,-6.0776,-6.0752,-6.0665,-6.0655,-6.0581,-6.0558,-6.0532,-6.0504,-6.0447,0,0]}]]